Other Public Products
Issued by NWS Charleston, SC

Current Version | Previous Version | Text Only | Print | Product List | Glossary Off
Versions: 1 2 3 4 5 6 7 8 9 10 11 12 13 14 15 16 17 18 19 20 21 22 23 24 25 26 27 28 29 30 31 32 33 34 35 36 37 38 39 40 41 42 43 44 45 46 47 48 49 50

000
FPUS82 KCHS 251027
OPUCHS

TEST...KCHS/KSAV Gateway Observations...TEST
National Weather Service Charleston SC
600 AM EDT THU MAY 25 2017

NOTE: "fair" indicates few or no clouds below 12,000 feet with no
significant weather and/or obstructions to visibility.

SCZ050-WAZ558-NCZ071-TXZ119-213-PAZ071-DCZ001-FLZ074-172-MI076-
NYZ176-178-MAZ016-IL014-TNZ027-NJZ106-GAZ044-MD014-251100-

...Gateway Observations for Charleston International...

CITY           SKY/WX    TMP DP  RH WIND       PRES   REMARKS
Chas Airport   PTCLDY    66  62  87 W12       29.62R
Seattle        CLEAR     50  44  80 CALM      29.92R
Charlotte      CLOUDY    59  56  89 S9        29.55R
Dallas DFW     CLEAR     61  53  75 SE9       29.68R
Dallas Love    CLEAR     64  51  62 SE12      29.69S
Philladelphia  HVY RAIN  56  53  90 E15G25    29.64F FOG
Wash National  LGT RAIN  58  58 100 VRB6      29.50S FOG
Baltimore      LGT RAIN  57  57 100 E15       29.51F FOG
Miami          CLOUDY    80  75  84 S8        29.85R
Detroit        RAIN      59  58  96 NE8       29.45S FOG
Newark         LGT RAIN  57  55  93 NE13      29.70F
Laguardia      LGT RAIN  57  54  89 NE12      29.72F
J F K          LGT RAIN  57  56  96 E12G22    29.72F
Boston Logan   CLOUDY    54  51  90 E12       29.87F
Ft. Lauderdale CLOUDY    79  75  87 S8        29.83R
Chicago O`Hare MOCLDY    54  50  86 N13       29.55S
Chicago Midway CLOUDY    55  51  86 N12       29.54R
Houston Bush   CLEAR     64  56  75 SE5       29.76S
Houston Hobby  CLEAR     66  60  81 S9        29.76S
Nashville      CLOUDY    55  52  89 W6        29.62R
Atlanta        MOCLDY    56  54  93 W9        29.65R

$$

GAZ044-118-TXZ119-213-NCZ071-DCZ001-MDZ014-506-PAZ021-071-NJZ106-
NYZ176-178-MAZ106-OHZ011-021-055-MIZ076-KYZ091-ILZ014-INZ047-
MNZ060-ONZ431-251100-

...Gateway Observations for Savannah International...

CITY           SKY/WX    TMP DP  RH WIND       PRES   REMARKS
Savannah Arpt  PTCLDY    63  59  87 SW7       29.67R
Atlanta        MOCLDY    56  54  93 W9        29.65R
Charlotte      CLOUDY    59  56  89 S9        29.55R
Dallas DFW     CLEAR     61  53  75 SE9       29.68R
Houston Bush   CLEAR     64  56  75 SE5       29.76S
Wash National  LGT RAIN  58  58 100 VRB6      29.50S FOG
Wash Dulles    LGT RAIN  56  55  97 NE6       29.50S FOG
Baltimore      LGT RAIN  57  57 100 E15       29.51F FOG
Philadelphia   HVY RAIN  56  53  90 E15G25    29.64F FOG
Newark         LGT RAIN  57  55  93 NE13      29.70F
Laguardia      LGT RAIN  57  54  89 NE12      29.72F
J F K          LGT RAIN  57  56  96 E12G22    29.72F
Boston         CLOUDY    54  51  90 E12       29.87F
Pittsburg      LGT RAIN  56  56 100 E9        29.47F
Akron          CLOUDY    60  55  83 SE8       29.46S
Cleveland      CLOUDY    62  57  83 SE9       29.46R
Cincinnati     RAIN      58  57  97 SW8       29.39S FOG
Columbus       CLOUDY    58  57  97 S9        29.39S
Detroit        RAIN      59  58  96 NE8       29.45S FOG
Chicago O`Hare MOCLDY    54  50  86 N13       29.55S
Minneapolis    CLEAR     51  47  86 E8        29.69S
Indianapolis   LGT RAIN  56  54  93 NW17      29.41R
Toronto Canada LGT RAIN  55  54  94 E15G23    29.58  FOG

$$




USA.gov is the U.S. government's official web portal to all federal, state and local government web resources and services.